Location: *
(49.6619°S, 177.4603°W)
Time: 05:08:16
(UTC+00:00)

USA 267 - Pass Details

Date: 31 January 2023
Orbit: 1101 x 1106 km, 123.0° (Epoch: 27 March)

Event Time Altitude Azimuth Distance (km) Brightness Sun altitude
Exits shadow 11:41:58 41° 351° (N) 1,556 3.6 -22.8°
Maximum altitude 11:43:26 48° 316° (NW) 1,431 3.5 -22.8°
Drops below altitude 10° 11:49:49 10° 242° (WSW) 2,996 5.9 -22.9°
Sets 11:52:26 0° 236° (SW) 3,958 6.7 -22.9°
